Buckland, AK

6:10 AM AKDT on September 19, 2017 (GMT -0800)
Buckland

Weather History for PABL - June, 2013

Change the Weather History Date:

Tuesday, June 4, 2013

  Actual Average (PASK) Record (PASK)
Temperature  
Mean Temperature 37 °F -  
Max Temperature 42 °F 52 °F 73 °F (2017)
Min Temperature 32 °F 35 °F 26 °F (1999)
Degree Days  
Heating Degree Days 28    
Moisture  
Dew Point 29 °F    
Average Humidity 73    
Maximum Humidity 87    
Minimum Humidity 61    
Precipitation  
Precipitation 0.00 in - - ()
Sea Level Pressure  
Sea Level Pressure 29.70 in    
Wind  
Wind Speed 13 mph (WNW)    
Max Wind Speed 25 mph    
Max Gust Speed 31 mph    
Visibility 10 miles    
Events      
Averages and records for this station are not official NWS values.
T = Trace of Precipitation, MM = Missing Value Source: NWS Daily Summary

Daily Weather History Graph

Daily Weather History Graph

Search for Another Location

Airport or City:

Trip Planner

Search our weather history database for the weather conditions in past years. The results will help you decide how hot, cold, wet, or windy it might be!

Date:

Astronomy

Jun. 04, 2013 Rise Set
Actual Time 3:41 AM AKDT 1:48 AM AKDT
Civil Twilight Sun does not set Sun does not set
Nautical Twilight Sun does not set Sun does not set
Astronomical Twilight Sun does not set Sun does not set
Moon 3:36 AM AKDT (6/4) 8:25 PM AKDT (6/4)
Length of Visible Light 24h 00m
Length of Day
22h 06m
Waning Crescent, 13% of the Moon is Illuminated
Jun 4
Waning Crescent
Jun 8
New
Jun 16
First Quarter
Jun 23
Full
Jun 29
Last Quarter

Hourly Weather History & Observations

Time (AKDT) Temp. Windchill Dew Point Humidity Pressure Visibility Wind Dir Wind Speed Gust Speed Precip Events Conditions
12:16 AM 41.0 °F 35.8 °F 33.8 °F 76% 29.72 in 10.0 mi NNW 8.1 mph - N/A   Scattered Clouds
12:36 AM 39.2 °F 35.0 °F 33.8 °F 81% 29.72 in 10.0 mi NNW 5.8 mph - N/A   Scattered Clouds
12:56 AM 39.2 °F 34.2 °F 33.8 °F 81% 29.73 in 10.0 mi WNW 6.9 mph - N/A   Overcast
1:16 AM 39.2 °F 33.6 °F 33.8 °F 81% 29.73 in 10.0 mi NW 8.1 mph - N/A   Overcast
1:36 AM 37.4 °F 30.3 °F 32.0 °F 81% 29.73 in 10.0 mi NW 10.4 mph 16.1 mph N/A   Overcast
1:56 AM 37.4 °F 30.3 °F 33.8 °F 87% 29.73 in 10.0 mi WNW 10.4 mph - N/A   Overcast
2:16 AM 37.4 °F 30.3 °F 32.0 °F 81% 29.73 in 10.0 mi WNW 10.4 mph 19.6 mph N/A   Overcast
2:36 AM 35.6 °F 28.0 °F 32.0 °F 87% 29.73 in 10.0 mi NW 10.4 mph - N/A   Overcast
2:56 AM 35.6 °F 28.6 °F 30.2 °F 81% 29.73 in 10.0 mi NW 9.2 mph - N/A   Overcast
3:16 AM 35.6 °F 30.7 °F 30.2 °F 81% 29.73 in 10.0 mi WNW 5.8 mph - N/A   Overcast
3:36 AM 33.8 °F 24.8 °F 30.2 °F 87% 29.72 in 10.0 mi WNW 12.7 mph 16.1 mph N/A   Overcast
3:56 AM 33.8 °F 25.3 °F 30.2 °F 87% 29.72 in 10.0 mi WNW 11.5 mph 19.6 mph N/A   Overcast
4:16 AM 33.8 °F 24.3 °F 30.2 °F 87% 29.72 in 10.0 mi WNW 13.8 mph 19.6 mph N/A   Overcast
4:36 AM 33.8 °F 25.8 °F 30.2 °F 87% 29.72 in 10.0 mi NW 10.4 mph 18.4 mph N/A   Overcast
4:56 AM 33.8 °F 24.3 °F 30.2 °F 87% 29.72 in 10.0 mi WNW 13.8 mph - N/A   Overcast
5:16 AM 33.8 °F 23.5 °F 30.2 °F 87% 29.72 in 10.0 mi WNW 16.1 mph 19.6 mph N/A   Overcast
5:36 AM 33.8 °F 25.8 °F 30.2 °F 87% 29.72 in 10.0 mi WNW 10.4 mph 17.3 mph N/A   Overcast
5:56 AM 33.8 °F 24.8 °F 30.2 °F 87% 29.72 in 10.0 mi West 12.7 mph - N/A   Overcast
6:16 AM 33.8 °F 24.8 °F 28.4 °F 81% 29.72 in 10.0 mi WNW 12.7 mph 17.3 mph N/A   Overcast
6:36 AM 32.0 °F 25.6 °F 28.4 °F 87% 29.72 in 10.0 mi WNW 6.9 mph 16.1 mph N/A   Overcast
6:56 AM 32.0 °F 21.6 °F 28.4 °F 87% 29.72 in 10.0 mi WNW 15.0 mph 20.7 mph N/A   Overcast
7:16 AM 32.0 °F 23.6 °F 28.4 °F 87% 29.72 in 10.0 mi West 10.4 mph 16.1 mph N/A   Overcast
7:36 AM 32.0 °F 22.5 °F 28.4 °F 87% 29.72 in 10.0 mi WNW 12.7 mph 21.9 mph N/A   Overcast
7:56 AM 32.0 °F 22.5 °F 28.4 °F 87% 29.71 in 10.0 mi WNW 12.7 mph - N/A   Overcast
8:16 AM 33.8 °F 23.9 °F 28.4 °F 81% 29.71 in 10.0 mi WNW 15.0 mph 20.7 mph N/A   Overcast
8:36 AM 33.8 °F 23.5 °F 28.4 °F 81% 29.71 in 10.0 mi WNW 16.1 mph 25.3 mph N/A   Overcast
8:56 AM 33.8 °F 22.8 °F 28.4 °F 81% 29.71 in 10.0 mi WNW 18.4 mph - N/A   Overcast
9:16 AM 33.8 °F 25.8 °F 28.4 °F 81% 29.71 in 10.0 mi WNW 10.4 mph - N/A   Overcast
9:36 AM 33.8 °F 23.5 °F 28.4 °F 81% 29.71 in 10.0 mi WNW 16.1 mph - N/A   Overcast
9:56 AM 33.8 °F 22.2 °F 28.4 °F 81% 29.70 in 10.0 mi WNW 20.7 mph - N/A   Overcast
10:16 AM 35.6 °F 23.7 °F 28.4 °F 75% 29.69 in 10.0 mi WNW 24.2 mph 28.8 mph N/A   Mostly Cloudy
10:36 AM 35.6 °F 25.2 °F 28.4 °F 75% 29.70 in 10.0 mi WNW 18.4 mph 27.6 mph N/A   Scattered Clouds
10:56 AM 35.6 °F 23.4 °F 28.4 °F 75% 29.70 in 10.0 mi WNW 25.3 mph - N/A   Mostly Cloudy
11:16 AM 37.4 °F 26.1 °F 28.4 °F 70% 29.69 in 10.0 mi WNW 24.2 mph 31.1 mph N/A   Partly Cloudy
11:36 AM 37.4 °F 26.6 °F 28.4 °F 70% 29.70 in 10.0 mi WNW 21.9 mph 27.6 mph N/A   Scattered Clouds
11:56 AM 37.4 °F 27.2 °F 28.4 °F 70% 29.70 in 10.0 mi WNW 19.6 mph 25.3 mph N/A   Partly Cloudy
12:16 PM 37.4 °F 26.1 °F 28.4 °F 70% 29.69 in 10.0 mi WNW 24.2 mph 31.1 mph N/A   Partly Cloudy
12:36 PM 37.4 °F 26.1 °F 28.4 °F 70% 29.69 in 10.0 mi WNW 24.2 mph 28.8 mph N/A   Clear
12:56 PM 37.4 °F 26.6 °F 28.4 °F 70% 29.70 in 10.0 mi WNW 21.9 mph 31.1 mph N/A   Clear
1:16 PM 39.2 °F 28.5 °F 28.4 °F 65% 29.69 in 10.0 mi NW 24.2 mph 27.6 mph N/A   Partly Cloudy
1:36 PM 37.4 °F 27.2 °F 28.4 °F 70% 29.69 in 10.0 mi WNW 19.6 mph 29.9 mph N/A   Partly Cloudy
1:56 PM 39.2 °F 29.8 °F 28.4 °F 65% 29.70 in 10.0 mi WNW 18.4 mph 24.2 mph N/A   Scattered Clouds
2:16 PM 39.2 °F 29.8 °F 28.4 °F 65% 29.69 in 10.0 mi NW 18.4 mph 27.6 mph N/A   Partly Cloudy
2:36 PM 39.2 °F 29.3 °F 28.4 °F 65% 29.69 in 10.0 mi WNW 20.7 mph 25.3 mph N/A   Clear
2:56 PM 39.2 °F 30.2 °F 28.4 °F 65% 29.69 in 10.0 mi WNW 17.3 mph 23.0 mph N/A   Clear
3:16 PM 39.2 °F 29.8 °F 28.4 °F 65% 29.69 in 10.0 mi NW 18.4 mph - N/A   Clear
3:36 PM 39.2 °F 30.2 °F 28.4 °F 65% 29.69 in 10.0 mi WNW 17.3 mph 23.0 mph N/A   Clear
3:56 PM 39.2 °F 30.5 °F 28.4 °F 65% 29.69 in 10.0 mi NW 16.1 mph - N/A   Clear
4:16 PM 39.2 °F 31.2 °F 28.4 °F 65% 29.69 in 10.0 mi WNW 13.8 mph 19.6 mph N/A   Partly Cloudy
4:36 PM 42.8 °F 34.0 °F 30.2 °F 61% 29.68 in 10.0 mi WNW 20.7 mph 26.5 mph N/A   Clear
4:56 PM 41.0 °F 30.9 °F 28.4 °F 61% 29.68 in 10.0 mi WNW 24.2 mph - N/A   Clear
5:16 PM 39.2 °F 29.6 °F 28.4 °F 65% 29.68 in 10.0 mi WNW 19.6 mph 27.6 mph N/A   Clear
5:36 PM 39.2 °F 29.6 °F 28.4 °F 65% 29.68 in 10.0 mi NW 19.6 mph 25.3 mph N/A   Clear
5:56 PM 39.2 °F 29.3 °F 28.4 °F 65% 29.68 in 10.0 mi WNW 20.7 mph 25.3 mph N/A   Clear
6:16 PM 39.2 °F 29.8 °F 28.4 °F 65% 29.68 in 10.0 mi WNW 18.4 mph 24.2 mph N/A   Clear
6:36 PM 39.2 °F 29.6 °F 28.4 °F 65% 29.68 in 10.0 mi NW 19.6 mph - N/A   Clear
6:56 PM 39.2 °F 30.8 °F 28.4 °F 65% 29.68 in 10.0 mi WNW 15.0 mph 23.0 mph N/A   Clear
7:16 PM 41.0 °F 32.2 °F 28.4 °F 61% 29.68 in 10.0 mi WNW 18.4 mph 21.9 mph N/A   Clear
7:36 PM 39.2 °F 32.0 °F 28.4 °F 65% 29.68 in 10.0 mi WNW 11.5 mph 20.7 mph N/A   Clear
7:56 PM 39.2 °F 29.8 °F 28.4 °F 65% 29.67 in 10.0 mi WNW 18.4 mph 24.2 mph N/A   Clear
8:16 PM 39.2 °F 29.8 °F 26.6 °F 61% 29.67 in 10.0 mi WNW 18.4 mph 24.2 mph N/A   Clear
8:36 PM 39.2 °F 29.8 °F 28.4 °F 65% 29.67 in 10.0 mi WNW 18.4 mph 23.0 mph N/A   Clear
8:56 PM 39.2 °F 29.8 °F 28.4 °F 65% 29.68 in 10.0 mi West 18.4 mph 25.3 mph N/A   Clear
9:16 PM 39.2 °F 31.2 °F 26.6 °F 61% 29.68 in 10.0 mi West 13.8 mph 20.7 mph N/A   Clear
9:36 PM 39.2 °F 30.2 °F 26.6 °F 61% 29.69 in 10.0 mi West 17.3 mph 23.0 mph N/A   Clear
9:56 PM 39.2 °F 31.2 °F 26.6 °F 61% 29.69 in 10.0 mi West 13.8 mph 21.9 mph N/A   Clear
10:16 PM 39.2 °F 31.2 °F 26.6 °F 61% 29.69 in 10.0 mi WNW 13.8 mph 19.6 mph N/A   Clear
10:36 PM 37.4 °F 28.9 °F 26.6 °F 65% 29.69 in 10.0 mi WNW 13.8 mph - N/A   Clear
10:56 PM 37.4 °F 28.9 °F 26.6 °F 65% 29.69 in 10.0 mi WNW 13.8 mph - N/A   Clear
11:16 PM 37.4 °F 28.5 °F 26.6 °F 65% 29.69 in 10.0 mi WNW 15.0 mph - N/A   Clear
11:36 PM 35.6 °F 26.6 °F 26.6 °F 70% 29.69 in 10.0 mi WNW 13.8 mph 19.6 mph N/A   Clear
11:56 PM 35.6 °F 26.2 °F 26.6 °F 70% 29.69 in 10.0 mi WNW 15.0 mph - N/A   Clear